Simultaneous Nadir Overpasses (SNOs) Predictions

Prediction of SNOs between FY3D and TERRA Satellite Orbit:

Table of predicted SNOs for the next 14.0 days since TLE Epoch: 7/13/2019
Index Date (FY3D) Time (FY3D) Lat,Lon (FY3D) SZA (FY3D ) Date (TERRA) Time (TERRA) Lat,Lon (TERRA) SZA (TERRA ) Distance(km) Time Diff (sec)
1 07/13/2019 14:52:15 69.47, -44.77 47.60 07/13/2019 14:53:24 69.36, -43.39 47.45 55.50 69
2 07/13/2019 15:42:46 -68.79, 123.49 133.10 07/13/2019 15:43:02 -68.81, 123.53 133.09 2.58 16
3 07/13/2019 16:33:29 68.66, -69.03 46.77 07/13/2019 16:32:30 68.64, -69.03 46.75 2.57 59
4 07/16/2019 07:08:43 69.53, 71.03 48.07 07/16/2019 07:09:51 69.43, 72.58 47.94 61.69 68
5 07/16/2019 07:59:13 -68.79,-120.63 132.69 07/16/2019 07:59:31 -68.77,-120.63 132.71 2.37 18
6 07/16/2019 08:49:56 68.67, 46.85 47.19 07/16/2019 08:48:58 68.66, 46.87 47.18 1.45 58
7 07/18/2019 23:25:09 69.54,-173.10 48.54 07/18/2019 23:26:18 69.45,-171.51 48.41 62.48 69
8 07/19/2019 00:15:39 -68.80, -4.75 132.22 07/19/2019 00:15:58 -68.79, -4.73 132.23 0.97 19
9 07/19/2019 01:06:22 68.67, 162.73 47.66 07/19/2019 01:05:25 68.67, 162.77 47.66 1.68 57
10 07/21/2019 15:41:37 69.60, -57.30 49.10 07/21/2019 15:42:45 69.52, -55.53 48.99 69.07 68
11 07/21/2019 16:32:06 -68.80, 111.13 131.72 07/21/2019 16:32:26 -68.82, 111.18 131.71 2.54 20
12 07/21/2019 17:22:48 68.63, -81.32 48.11 07/21/2019 17:21:54 68.64, -81.39 48.13 3.18 54
13 07/24/2019 07:58:05 69.66, 58.50 49.70 07/24/2019 07:59:13 69.55, 60.38 49.55 73.86 68
14 07/24/2019 08:48:33 -68.81,-132.99 131.17 07/24/2019 08:48:55 -68.79,-132.98 131.20 2.77 22
15 07/24/2019 09:39:16 68.69, 34.48 48.71 07/24/2019 09:38:22 68.66, 34.52 48.69 3.07 54
16 07/27/2019 00:14:33 69.72, 174.30 50.34 07/27/2019 00:15:40 69.63, 176.37 50.21 80.65 67
17 07/27/2019 01:05:00 -68.82, -17.12 130.58 07/27/2019 01:05:23 -68.81, -17.06 130.59 2.26 23
18 07/27/2019 01:55:42 68.69, 150.36 49.30 07/27/2019 01:54:49 68.69, 150.43 49.30 2.95 53




NCC Satellite Simultaneous Nadir Overpasses (SNOs) Prediction Service
